FW4443 Weather Reports


Display with metric or nautical units.
time (UTC)temp
F
wind
direction
speed
MPH
gust
MPH
rain 1hr
in
rain 24hr
in
rain mn
in
humidity
%
barometer
mb
20260506051144 68 0 5.0 13.0 0.00 0.00 0.00 29 1012.2
20260506050524 68 0 5.0 14.0 0.00 0.00 0.00 29 1012.1
20260506050206 69 0 5.0 14.0 0.00 0.00 0.00 29 1012.1
20260506044933 69 0 6.0 17.0 0.00 0.00 0.00 30 1012.1
20260506044610 69 0 6.0 17.0 0.00 0.00 0.00 30 1012.1
20260506044255 69 0 6.0 17.0 0.00 0.00 0.00 29 1012.0
20260506043936 69 0 6.0 16.0 0.00 0.00 0.00 30 1011.9
20260506043619 69 0 5.0 16.0 0.00 0.00 0.00 30 1011.9
20260506043302 69 0 5.0 16.0 0.00 0.00 0.00 30 1012.0
20260506042941 69 0 4.0 10.0 0.00 0.00 0.00 30 1011.9
20260506042620 69 0 4.0 10.0 0.00 0.00 0.00 30 1011.9
20260506042256 69 0 4.0 10.0 0.00 0.00 0.00 30 1011.8
20260506041933 69 0 4.0 10.0 0.00 0.00 0.00 30 1011.8
20260506041611 69 0 4.0 10.0 0.00 0.00 0.00 29 1011.8
20260506041256 69 0 3.0 10.0 0.00 0.00 0.00 29 1011.7
20260506040939 70 0 3.0 9.0 0.00 0.00 0.00 29 1011.7
20260506040616 70 0 3.0 9.0 0.00 0.00 0.00 29 1011.6
20260506040256 70 0 5.0 11.0 0.00 0.00 0.00 29 1011.5
20260506035933 70 0 4.0 11.0 0.00 0.00 0.00 29 1011.5
20260506035618 70 0 4.0 11.0 0.00 0.00 0.00 29 1011.4
20260506035301 70 0 4.0 11.0 0.00 0.00 0.00 29 1011.4
20260506034937 70 0 5.0 11.0 0.00 0.00 0.00 29 1011.3
20260506034619 70 0 4.0 11.0 0.00 0.00 0.00 29 1011.3
20260506034257 70 0 4.0 11.0 0.00 0.00 0.00 29 1011.1
20260506033631 70 0 3.0 11.0 0.00 0.00 0.00 29 1011.2
20260506033305 70 0 3.0 11.0 0.00 0.00 0.00 29 1011.0
20260506032946 70 0 4.0 11.0 0.00 0.00 0.00 29 1010.9
20260506032622 71 0 3.0 11.0 0.00 0.00 0.00 29 1010.9
20260506032305 71 0 3.0 8.0 0.00 0.00 0.00 28 1010.8
20260506031937 71 0 3.0 12.0 0.00 0.00 0.00 28 1010.7
20260506031623 71 0 3.0 12.0 0.00 0.00 0.00 28 1010.7
20260506031300 71 0 4.0 12.0 0.00 0.00 0.00 28 1010.6
20260506030944 71 0 5.0 12.0 0.00 0.00 0.00 28 1010.6
20260506030627 71 0 5.0 12.0 0.00 0.00 0.00 28 1010.5
20260506030310 71 0 4.0 12.0 0.00 0.00 0.00 28 1010.4
20260506025950 71 0 4.0 9.0 0.00 0.00 0.00 28 1010.4
20260506025635 72 0 4.0 9.0 0.00 0.00 0.00 28 1010.3
20260506025315 72 0 4.0 9.0 0.00 0.00 0.00 28 1010.4
20260506024953 72 0 3.0 9.0 0.00 0.00 0.00 27 1010.3
20260506024637 72 0 3.0 8.0 0.00 0.00 0.00 26 1010.2
20260506024312 72 0 3.0 9.0 0.00 0.00 0.00 26 1010.2
20260506023948 72 0 3.0 9.0 0.00 0.00 0.00 26 1010.1
20260506023632 72 0 3.0 9.0 0.00 0.00 0.00 25 1010.1
20260506023312 72 0 3.0 9.0 0.00 0.00 0.00 26 1010.1
20260506022950 72 0 3.0 9.0 0.00 0.00 0.00 25 1010.0
20260506022331 72 0 3.0 8.0 0.00 0.00 0.00 25 1009.9
20260506022015 72 0 4.0 10.0 0.00 0.00 0.00 25 1010.0
20260506021658 72 0 3.0 10.0 0.00 0.00 0.00 25 1009.9
20260506021333 72 0 3.0 10.0 0.00 0.00 0.00 24 1009.9
20260506020716 73 0 3.0 10.0 0.00 0.00 0.00 24 1009.8
20260506020359 73 0 4.0 10.0 0.00 0.00 0.00 24 1009.8
20260506020037 73 0 3.0 9.0 0.00 0.00 0.00 24 1009.8
20260506015712 73 0 3.0 8.0 0.00 0.00 0.00 24 1009.8
20260506015052 73 0 3.0 8.0 0.00 0.00 0.00 24 1009.7
20260506014727 73 0 3.0 11.0 0.00 0.00 0.00 24 1009.7
20260506014410 73 0 3.0 11.0 0.00 0.00 0.00 24 1009.8
20260506014048 73 0 3.0 11.0 0.00 0.00 0.00 23 1009.7
20260506013731 73 0 4.0 11.0 0.00 0.00 0.00 24 1009.8
20260506013414 73 0 4.0 11.0 0.00 0.00 0.00 23 1009.7
20260506012456 73 212 3.0 9.0 0.00 0.00 0.00 23 1009.7
20260506011536 74 176 4.0 9.0 0.00 0.00 0.00 22 1009.6
20260506011216 74 171 4.0 9.0 0.00 0.00 0.00 22 1009.6
20260506010855 74 252 4.0 9.0 0.00 0.00 0.00 22 1009.6
20260506010529 74 156 4.0 9.0 0.00 0.00 0.00 22 1009.6
20260506010215 74 178 4.0 11.0 0.00 0.00 0.00 21 1009.6
20260506005859 74 148 4.0 11.0 0.00 0.00 0.00 21 1009.6
20260506005242 74 209 4.0 12.0 0.00 0.00 0.00 21 1009.6
20260506004628 74 181 3.0 12.0 0.00 0.00 0.00 21 1009.5
20260506003706 74 198 3.0 12.0 0.00 0.00 0.00 21 1009.5
20260506003352 74 173 1.0 8.0 0.00 0.00 0.00 21 1009.4
20260506003029 74 202 1.0 7.0 0.00 0.00 0.00 20 1009.5
20260506002704 74 34 1.0 7.0 0.00 0.00 0.00 22 1009.5
20260506002339 74 71 2.0 11.0 0.00 0.00 0.00 22 1009.5
20260506002020 75 106 4.0 11.0 0.00 0.00 0.00 20 1009.4
20260506001704 75 146 5.0 11.0 0.00 0.00 0.00 21 1009.5
20260506001344 75 163 5.0 11.0 0.00 0.00 0.00 20 1009.5
20260506001018 75 169 4.0 11.0 0.00 0.00 0.00 20 1009.5
20260506000656 75 165 4.0 11.0 0.00 0.00 0.00 20 1009.5
20260506000331 76 147 3.0 10.0 0.00 0.00 0.00 19 1009.4
20260506000004 76 209 2.0 8.0 0.00 0.00 0.00 20 1009.3
20260505235641 76 251 2.0 8.0 0.00 0.00 0.00 20 1009.3
20260505235319 76 267 2.0 12.0 0.00 0.00 0.00 21 1009.3
20260505235002 75 254 4.0 12.0 0.00 0.00 0.00 20 1009.3
20260505234641 76 211 4.0 12.0 0.00 0.00 0.00 20 1009.2
20260505234316 75 171 4.0 12.0 0.00 0.00 0.00 20 1009.3
20260505234002 75 239 2.0 12.0 0.00 0.00 0.00 20 1009.2
20260505233644 75 163 2.0 12.0 0.00 0.00 0.00 20 1009.3
20260505233319 75 126 1.0 7.0 0.00 0.00 0.00 20 1009.3
20260505233004 75 207 2.0 7.0 0.00 0.00 0.00 20 1009.4
20260505232046 75 242 3.0 12.0 0.00 0.00 0.00 21 1009.3
20260505231727 75 180 4.0 12.0 0.00 0.00 0.00 20 1009.5
20260505231407 76 227 5.0 12.0 0.00 0.00 0.00 21 1009.5
20260505231042 76 149 6.0 12.0 0.00 0.00 0.00 22 1009.5
20260505230719 75 199 3.0 12.0 0.00 0.00 0.00 20 1009.5
20260505230400 76 165 3.0 11.0 0.00 0.00 0.00 19 1009.5
20260505230033 76 138 1.0 7.0 0.00 0.00 0.00 20 1009.5
20260505225717 77 34 2.0 10.0 0.00 0.00 0.00 19 1009.6
20260505225353 77 34 3.0 10.0 0.00 0.00 0.00 20 1009.7
20260505225038 77 339 3.0 10.0 0.00 0.00 0.00 19 1009.7
20260505224712 77 345 4.0 10.0 0.00 0.00 0.00 21 1009.8
20260505224349 77 86 3.0 10.0 0.00 0.00 0.00 22 1009.8
20260505224031 77 121 4.0 10.0 0.00 0.00 0.00 23 1009.9
20260505223708 76 107 2.0 8.0 0.00 0.00 0.00 21 1009.9
20260505223350 76 78 3.0 16.0 0.00 0.00 0.00 20 1009.9
20260505223029 75 128 3.0 16.0 0.00 0.00 0.00 23 1010.0
20260505222709 76 190 4.0 16.0 0.00 0.00 0.00 23 1010.0
20260505222046 76 169 7.0 16.0 0.00 0.00 0.00 23 1010.1
20260505221730 76 154 7.0 16.0 0.00 0.00 0.00 20 1010.1
20260505221408 76 118 4.0 12.0 0.00 0.00 0.00 21 1010.1
20260505221048 76 195 3.0 11.0 0.00 0.00 0.00 22 1010.1
20260505220727 76 209 2.0 10.0 0.00 0.00 0.00 20 1010.2
20260505220410 76 43 2.0 8.0 0.00 0.00 0.00 20 1010.3
20260505220055 76 106 1.0 8.0 0.00 0.00 0.00 23 1010.3
20260505215433 77 74 2.0 7.0 0.00 0.00 0.00 21 1010.5
20260505215116 78 66 3.0 7.0 0.00 0.00 0.00 24 1010.4
20260505214451 76 19 3.0 13.0 0.00 0.00 0.00 21 1010.5
20260505214129 76 71 4.0 13.0 0.00 0.00 0.00 22 1010.5
20260505213807 76 116 5.0 13.0 0.00 0.00 0.00 24 1010.5
20260505213448 77 58 6.0 13.0 0.00 0.00 0.00 22 1010.6
20260505213128 78 114 6.0 13.0 0.00 0.00 0.00 25 1010.7
20260505212810 77 117 5.0 11.0 0.00 0.00 0.00 26 1010.6
20260505212452 76 101 5.0 11.0 0.00 0.00 0.00 25 1010.7
20260505211834 76 103 4.0 15.0 0.00 0.00 0.00 24 1010.9
20260505211515 76 109 4.0 15.0 0.00 0.00 0.00 22 1010.9
20260505210852 77 106 5.0 15.0 0.00 0.00 0.00 25 1010.9
20260505205936 74 113 3.0 11.0 0.00 0.00 0.00 25 1011.0
20260505205621 74 234 5.0 13.0 0.00 0.00 0.00 24 1011.0
20260505205307 74 151 4.0 13.0 0.00 0.00 0.00 24 1011.0
20260505204949 74 148 4.0 13.0 0.00 0.00 0.00 27 1011.0
20260505204625 74 214 4.0 13.0 0.00 0.00 0.00 24 1011.1
20260505204309 74 163 4.0 13.0 0.00 0.00 0.00 24 1011.0
20260505203951 76 217 4.0 13.0 0.00 0.00 0.00 22 1011.0
20260505203629 75 115 2.0 12.0 0.00 0.00 0.00 27 1010.9
20260505203305 74 71 3.0 12.0 0.00 0.00 0.00 25 1011.1
20260505202946 74 21 4.0 12.0 0.00 0.00 0.00 26 1011.0
20260505202625 74 100 4.0 12.0 0.00 0.00 0.00 24 1011.0
20260505202300 74 106 5.0 12.0 0.00 0.00 0.00 24 1011.1
20260505201942 74 138 3.0 11.0 0.00 0.00 0.00 23 1011.1
20260505201619 74 180 5.0 12.0 0.00 0.00 0.00 26 1011.1
20260505201301 75 175 6.0 12.0 0.00 0.00 0.00 24 1011.1
20260505200940 76 101 6.0 12.0 0.00 0.00 0.00 25 1011.2
20260505200614 75 101 5.0 14.0 0.00 0.00 0.00 26 1011.2
20260505200250 75 100 4.0 14.0 0.00 0.00 0.00 26 1011.2
20260505195325 74 137 6.0 14.0 0.00 0.00 0.00 26 1011.5
20260505195010 73 113 5.0 14.0 0.00 0.00 0.00 27 1011.5
20260505194654 73 136 4.0 11.0 0.00 0.00 0.00 28 1011.4
20260505194328 73 126 5.0 11.0 0.00 0.00 0.00 28 1011.5
20260505194011 73 78 6.0 13.0 0.00 0.00 0.00 25 1011.5
20260505193053 74 130 6.0 13.0 0.00 0.00 0.00 27 1011.6
20260505192735 74 144 5.0 13.0 0.00 0.00 0.00 26 1011.7
20260505192409 74 177 5.0 13.0 0.00 0.00 0.00 32 1011.7
20260505192043 73 144 4.0 13.0 0.00 0.00 0.00 29 1011.6
20260505191724 73 128 5.0 13.0 0.00 0.00 0.00 29 1011.6
20260505191404 73 125 5.0 13.0 0.00 0.00 0.00 28 1011.6
20260505191049 73 92 6.0 13.0 0.00 0.00 0.00 30 1011.6
20260505190734 72 140 6.0 13.0 0.00 0.00 0.00 28 1011.7
20260505190418 72 140 6.0 13.0 0.00 0.00 0.00 28 1011.9
20260505185754 73 0 6.0 15.0 0.00 0.00 0.00 30 1011.7
20260505185430 73 186 5.0 15.0 0.00 0.00 0.00 28 1011.8
20260505185110 73 178 6.0 15.0 0.00 0.00 0.00 28 1011.8
20260505184745 73 144 6.0 15.0 0.00 0.00 0.00 28 1011.7
20260505184424 72 121 6.0 15.0 0.00 0.00 0.00 28 1011.8
20260505183802 71 121 3.0 13.0 0.00 0.00 0.00 29 1011.9
20260505183441 71 206 3.0 13.0 0.00 0.00 0.00 29 1011.8
20260505183126 71 124 4.0 17.0 0.00 0.00 0.00 29 1011.8
20260505182808 71 113 6.0 17.0 0.00 0.00 0.00 29 1011.9
20260505182147 71 197 8.0 17.0 0.00 0.00 0.00 29 1011.8
20260505181825 70 192 9.0 17.0 0.00 0.00 0.00 30 1011.8
20260505181508 71 0 8.0 17.0 0.00 0.00 0.00 29 1011.8
20260505181143 71 0 6.0 16.0 0.00 0.00 0.00 33 1011.8
20260505180823 70 158 5.0 16.0 0.00 0.00 0.00 30 1011.9
20260505180502 70 148 5.0 16.0 0.00 0.00 0.00 30 1011.9
20260505180144 70 172 5.0 16.0 0.00 0.00 0.00 29 1011.9
20260505175827 69 165 4.0 15.0 0.00 0.00 0.00 31 1011.8
20260505175503 69 167 4.0 15.0 0.00 0.00 0.00 30 1011.8
20260505174840 70 116 5.0 15.0 0.00 0.00 0.00 33 1011.8
20260505174520 70 187 4.0 15.0 0.00 0.00 0.00 30 1011.9
20260505174200 70 88 4.0 11.0 0.00 0.00 0.00 32 1011.8
20260505173842 70 132 4.0 11.0 0.00 0.00 0.00 32 1011.7
20260505173524 68 135 4.0 11.0 0.00 0.00 0.00 32 1011.8
20260505173208 68 180 5.0 14.0 0.00 0.00 0.00 32 1012.0
20260505171942 68 0 6.0 14.0 0.00 0.00 0.00 32 1011.9
20260505171622 69 0 4.0 14.0 0.00 0.00 0.00 31 1011.8
20260505171259 69 94 5.0 14.0 0.00 0.00 0.00 33 1011.8
20260505170935 68 134 5.0 10.0 0.00 0.00 0.00 33 1011.8
20260505170613 68 0 5.0 10.0 0.00 0.00 0.00 33 1011.8
20260505170253 67 0 5.0 10.0 0.00 0.00 0.00 33 1011.8
20260505165937 68 0 4.0 10.0 0.00 0.00 0.00 34 1011.9
20260505165622 67 154 3.0 9.0 0.00 0.00 0.00 35 1011.9
20260505164655 66 0 2.0 7.0 0.00 0.00 0.00 38 1012.0
20260505164333 65 140 1.0 5.0 0.00 0.00 0.00 36 1012.1
20260505164012 65 123 2.0 5.0 0.00 0.00 0.00 38 1012.0
20260505163655 65 169 2.0 5.0 0.00 0.00 0.00 38 1012.0
20260505163336 65 165 2.0 5.0 0.00 0.00 0.00 36 1012.1
20260505163021 65 0 1.0 5.0 0.00 0.00 0.00 37 1012.1
20260505162401 64 0 1.0 5.0 0.00 0.00 0.00 39 1012.0
20260505161745 64 0 1.0 5.0 0.00 0.00 0.00 38 1012.2
20260505161420 64 0 1.0 5.0 0.00 0.00 0.00 43 1012.1
20260505161102 63 0 1.0 5.0 0.00 0.00 0.00 39 1012.1
20260505160740 63 0 1.0 8.0 0.00 0.00 0.00 39 1012.2
20260505160414 63 0 2.0 8.0 0.00 0.00 0.00 40 1012.2
20260505153053 61 0 3.0 8.0 0.00 0.00 0.00 45 1012.1
20260505152728 60 0 3.0 8.0 0.00 0.00 0.00 45 1012.1
20260505152405 60 0 3.0 8.0 0.00 0.00 0.00 46 1012.0
20260505152039 60 0 3.0 8.0 0.00 0.00 0.00 45 1012.1
20260505151723 60 0 3.0 7.0 0.00 0.00 0.00 45 1012.1
20260505151408 60 0 3.0 7.0 0.00 0.00 0.00 45 1011.9
20260505151046 60 0 3.0 7.0 0.00 0.00 0.00 45 1011.9
20260505150724 60 0 3.0 7.0 0.00 0.00 0.00 44 1011.8
20260505150406 60 0 3.0 7.0 0.00 0.00 0.00 45 1011.8
20260505140546 57 0 2.0 7.0 0.00 0.00 0.00 48 1011.4
20260505125010 56 155 4.0 10.0 0.00 0.00 0.00 48 1010.6
20260505124655 57 159 4.0 12.0 0.00 0.00 0.00 48 1010.5
20260505124332 57 207 3.0 12.0 0.00 0.00 0.00 48 1010.5
20260505124014 57 169 4.0 12.0 0.00 0.00 0.00 47 1010.5
20260505123651 57 177 4.0 12.0 0.00 0.00 0.00 47 1010.5
20260505123335 57 178 4.0 12.0 0.00 0.00 0.00 47 1010.5
20260505123013 57 175 3.0 12.0 0.00 0.00 0.00 47 1010.6
20260505122652 57 163 3.0 9.0 0.00 0.00 0.00 47 1010.5
20260505122332 57 225 3.0 9.0 0.00 0.00 0.00 47 1010.5
20260505122014 57 171 3.0 9.0 0.00 0.00 0.00 47 1010.5
20260505121649 57 173 3.0 9.0 0.00 0.00 0.00 47 1010.5
20260505121323 57 187 3.0 9.0 0.00 0.00 0.00 47 1010.5
20260505120957 57 187 3.0 8.0 0.00 0.00 0.00 46 1010.4
20260505120635 57 202 3.0 8.0 0.00 0.00 0.00 46 1010.5
20260505120315 58 190 3.0 12.0 0.00 0.00 0.00 46 1010.4
20260505115955 58 192 4.0 12.0 0.00 0.00 0.00 46 1010.5
20260505115634 58 209 4.0 12.0 0.00 0.00 0.00 46 1010.4
20260505115316 58 171 5.0 12.0 0.00 0.00 0.00 46 1010.5
20260505114958 58 175 5.0 12.0 0.00 0.00 0.00 46 1010.4
20260505114639 58 167 5.0 12.0 0.00 0.00 0.00 47 1010.3
20260505114322 58 153 5.0 12.0 0.00 0.00 0.00 46 1010.4
20260505113957 58 206 5.0 12.0 0.00 0.00 0.00 46 1010.4
20260505113638 58 217 4.0 12.0 0.00 0.00 0.00 45 1010.4
20260505113316 58 204 3.0 11.0 0.00 0.00 0.00 45 1010.5
20260505112956 58 174 3.0 11.0 0.00 0.00 0.00 46 1010.4
20260505112635 58 176 3.0 11.0 0.00 0.00 0.00 46 1010.4
20260505112311 58 190 4.0 11.0 0.00 0.00 0.00 46 1010.5
20260505111950 58 171 4.0 11.0 0.00 0.00 0.00 45 1010.4
20260505111629 58 169 4.0 11.0 0.00 0.00 0.00 45 1010.3
20260505111312 58 194 5.0 13.0 0.00 0.00 0.00 44 1010.3
20260505110948 58 146 6.0 13.0 0.00 0.00 0.00 44 1010.2
20260505110630 58 134 7.0 13.0 0.00 0.00 0.00 44 1010.2
20260505110315 59 153 6.0 13.0 0.00 0.00 0.00 44 1010.1
20260505102111 59 161 8.0 13.0 0.00 0.00 0.00 44 1010.2
20260505101755 59 145 7.0 13.0 0.00 0.00 0.00 44 1010.2
20260505101434 59 162 6.0 13.0 0.00 0.00 0.00 44 1010.1
20260505101119 59 148 6.0 13.0 0.00 0.00 0.00 44 1010.1
20260505100804 59 188 5.0 13.0 0.00 0.00 0.00 43 1010.1
20260505100450 59 153 5.0 13.0 0.00 0.00 0.00 43 1010.1
20260505100125 59 158 5.0 12.0 0.00 0.00 0.00 43 1010.0
20260505095759 59 161 4.0 12.0 0.00 0.00 0.00 43 1010.0
20260505095433 60 161 5.0 12.0 0.00 0.00 0.00 42 1010.1
20260505095109 60 155 4.0 12.0 0.00 0.00 0.00 42 1010.0
20260505094750 60 0 5.0 12.0 0.00 0.00 0.00 42 1010.0
20260505094436 60 0 4.0 10.0 0.00 0.00 0.00 41 1010.0
20260505094113 60 0 4.0 10.0 0.00 0.00 0.00 41 1010.0
20260505093755 60 0 3.0 9.0 0.00 0.00 0.00 41 1010.1
20260505093438 60 0 4.0 13.0 0.00 0.00 0.00 41 1010.1
20260505093114 60 0 4.0 13.0 0.00 0.00 0.00 41 1010.1
20260505092753 60 0 5.0 13.0 0.00 0.00 0.00 41 1010.1
20260505092430 60 0 6.0 13.0 0.00 0.00 0.00 41 1010.1
20260505092107 60 0 7.0 13.0 0.00 0.00 0.00 41 1010.1
20260505091748 60 0 7.0 13.0 0.00 0.00 0.00 41 1010.1
20260505091429 60 0 6.0 11.0 0.00 0.00 0.00 41 1010.2
20260505091107 60 0 6.0 11.0 0.00 0.00 0.00 41 1010.2
20260505090749 60 0 6.0 11.0 0.00 0.00 0.00 41 1010.1
20260505090431 60 0 5.0 10.0 0.00 0.00 0.00 41 1010.1
20260505090113 60 0 5.0 10.0 0.00 0.00 0.00 41 1010.0
20260505085750 60 0 5.0 10.0 0.00 0.00 0.00 41 1010.0
20260505085426 60 0 5.0 9.0 0.00 0.00 0.00 40 1010.1
20260505085109 60 0 4.0 9.0 0.00 0.00 0.00 40 1010.1
20260505084752 61 0 4.0 9.0 0.00 0.00 0.00 40 1010.2
20260505084437 61 0 4.0 9.0 0.00 0.00 0.00 40 1010.2
20260505084115 61 0 4.0 9.0 0.00 0.00 0.00 40 1010.2
20260505083756 61 0 4.0 9.0 0.00 0.00 0.00 40 1010.3
20260505083441 61 0 5.0 9.0 0.00 0.00 0.00 39 1010.2
20260505083124 61 0 5.0 9.0 0.00 0.00 0.00 39 1010.3
20260505082803 61 0 5.0 9.0 0.00 0.00 0.00 39 1010.3
20260505082441 61 0 4.0 9.0 0.00 0.00 0.00 39 1010.1
20260505082121 61 0 3.0 9.0 0.00 0.00 0.00 39 1010.2
20260505081800 61 0 3.0 8.0 0.00 0.00 0.00 39 1010.2
20260505081445 61 0 3.0 8.0 0.00 0.00 0.00 38 1010.2
20260505081119 61 0 3.0 8.0 0.00 0.00 0.00 38 1010.2
20260505080757 62 0 3.0 8.0 0.00 0.00 0.00 38 1010.2
20260505080434 62 0 3.0 8.0 0.00 0.00 0.00 38 1010.2
20260505075817 62 0 2.0 4.0 0.00 0.00 0.00 37 1010.2
20260505075452 62 0 2.0 4.0 0.00 0.00 0.00 36 1010.2
20260505075130 62 0 2.0 4.0 0.00 0.00 0.00 37 1010.3
20260505074804 63 0 1.0 4.0 0.00 0.00 0.00 36 1010.3
20260505074442 63 0 1.0 9.0 0.00 0.00 0.00 36 1010.3
20260505074123 63 0 2.0 9.0 0.00 0.00 0.00 36 1010.3
20260505073804 63 0 2.0 9.0 0.00 0.00 0.00 36 1010.2
20260505073444 63 0 3.0 14.0 0.00 0.00 0.00 36 1010.1
20260505073120 63 0 5.0 14.0 0.00 0.00 0.00 36 1010.0
20260505072758 63 0 6.0 14.0 0.00 0.00 0.00 36 1009.8
20260505072438 63 0 6.0 15.0 0.00 0.00 0.00 36 1009.7
20260505072115 63 0 8.0 15.0 0.00 0.00 0.00 36 1009.7
20260505071758 63 0 8.0 15.0 0.00 0.00 0.00 36 1009.7
20260505071139 63 0 8.0 19.0 0.00 0.00 0.00 36 1009.7
20260505070819 64 0 8.0 19.0 0.00 0.00 0.00 35 1009.6
20260505070454 64 0 10.0 19.0 0.00 0.00 0.00 35 1009.7
20260505070129 64 0 10.0 19.0 0.00 0.00 0.00 35 1009.6
20260505065503 64 0 8.0 17.0 0.00 0.00 0.00 35 1009.6
20260505064841 64 0 8.0 20.0 0.00 0.00 0.00 35 1009.7
20260505064516 64 0 8.0 20.0 0.00 0.00 0.00 35 1009.7
20260505064157 64 0 9.0 20.0 0.00 0.00 0.00 35 1009.8
20260505063838 64 0 9.0 20.0 0.00 0.00 0.00 35 1009.7
20260505063520 64 0 9.0 20.0 0.00 0.00 0.00 35 1009.8
20260505062857 64 0 8.0 16.0 0.00 0.00 0.00 34 1009.8
20260505062237 65 0 8.0 17.0 0.00 0.00 0.00 34 1009.7
20260505061611 65 0 8.0 20.0 0.00 0.00 0.00 33 1009.7
20260505061253 65 0 9.0 20.0 0.00 0.00 0.00 33 1009.8
20260505060633 65 0 8.0 20.0 0.00 0.00 0.00 33 1009.7
20260505060310 65 0 8.0 20.0 0.00 0.00 0.00 33 1009.7
20260505055954 65 0 8.0 20.0 0.00 0.00 0.00 33 1009.8
20260505055638 65 0 7.0 20.0 0.00 0.00 0.00 32 1009.9
20260505055320 65 0 6.0 15.0 0.00 0.00 0.00 32 1009.9
20260505054954 65 0 6.0 19.0 0.00 0.00 0.00 32 1009.9
20260505054629 65 0 6.0 19.0 0.00 0.00 0.00 32 1009.8
20260505054304 65 0 6.0 19.0 0.00 0.00 0.00 32 1009.9
20260505053947 66 0 7.0 19.0 0.00 0.00 0.00 32 1009.9
20260505053624 66 0 7.0 19.0 0.00 0.00 0.00 31 1009.8
20260505053259 66 0 8.0 19.0 0.00 0.00 0.00 31 1009.8
20260505052935 66 0 8.0 16.0 0.00 0.00 0.00 31 1009.7